Regional Weather Roundup
Issued by NWS

Home | Current Version | Previous Version | Graphics & Text | Print | Product List | Glossary On
Versions: 1 2 3 4 5 6 7 8 9 10 11 12 13 14 15 16 17 18 19 20 21 22 23 24 25 26 27 28 29 30 31 32 33 34 35 36 37 38 39 40 41 42 43 44 45 46 47 48 49 50
000
ASUS43 KOAX 261802
RWRNE

WEATHER ROUNDUP FOR NEBRASKA
NATIONAL WEATHER SERVICE OMAHA NE
100 PM CDT THU MAY 26 2016

NOTES: SATELLITE DATA IS BEING USED TO AUGMENT CLOUD COVER ABOVE
       12000 FEET.
       "FAIR" INDICATES FEW OR NO CLOUDS BELOW 12,000 FEET WITH NO
       SIGNIFICANT WEATHER AND/OR OBSTRUCTIONS TO VISIBILITY.

  * THESE STATIONS DO NOT REPORT WEATHER SUCH AS RAIN...SNOW OR FOG.

NEZ001>004-019>022-054>056-261900-
NEBRASKA PANHANDLE

CITY           SKY/WX    TMP DP  RH WIND       PRES   REMARKS
SCOTTSBLUFF    CLOUDY    69  39  33 VRB3      29.91F
6HR MIN TEMP:  43; 6HR MAX TEMP:  71;

ALLIANCE       SUNNY     70  40  33 NW7       29.89F
6HR MIN TEMP:  36; 6HR MAX TEMP:  70;

CHADRON        SUNNY     69  44  40 SW6       29.90F
6HR MIN TEMP:  40; 6HR MAX TEMP:  70;

SIDNEY         CLOUDY    60  48  64 NE9       29.93F
6HR MIN TEMP:  47; 6HR MAX TEMP:  65; 6HR PCP: TRACE;

$$

NEZ057>060-069>072-079>082-261900-
SOUTHWEST NEBRASKA

CITY           SKY/WX    TMP DP  RH WIND       PRES   REMARKS
NORTH PLATTE   SUNNY     72  50  45 SE8       29.89S
6HR MIN TEMP:  52; 6HR MAX TEMP:  74; 6HR PCP:  0.09;

IMPERIAL       SUNNY     72  47  40 E20       29.87F
6HR MIN TEMP:  53; 6HR MAX TEMP:  73;

LEXINGTON      SUNNY     69  59  70 NE14      29.87F
MCCOOK         SUNNY     74  54  49 NE20      29.84F
6HR MIN TEMP:  50; 6HR MAX TEMP:  74;

$$

NEZ005>010-023>029-035>040-094-261900-
NORTH CENTRAL NEBRASKA

CITY           SKY/WX    TMP DP  RH WIND       PRES   REMARKS
VALENTINE      PTSUNNY   71  50  47 S13       29.88F
6HR MIN TEMP:  47; 6HR MAX TEMP:  71;

AINSWORTH      CLOUDY    65  53  64 S3        29.90S
BROKEN BOW     MOSUNNY   71  55  56 SE8       29.90F
6HR MIN TEMP:  54; 6HR MAX TEMP:  72; 6HR PCP:  0.01;

ORD            CLOUDY    68  55  63 E3        29.88F
6HR MIN TEMP:  53; 6HR MAX TEMP:  69;

$$

NEZ041-046>049-061>064-073>077-083>087-261900-
SOUTH CENTRAL NEBRASKA

CITY           SKY/WX    TMP DP  RH WIND       PRES   REMARKS
GRAND ISLAND   MOSUNNY   75  59  57 NE14      29.87F
6HR MIN TEMP:  55; 6HR MAX TEMP:  75;

HASTINGS       MOSUNNY   77  58  51 NE13      29.84F
6HR MIN TEMP:  53; 6HR MAX TEMP:  77;

KEARNEY *      PTSUNNY   73  57  56 NE13      29.86F
YORK           SUNNY     77  61  57 NE12      29.85S
$$

NEZ011>018-030>034-042>045-261900-
NORTHEAST NEBRASKA

CITY           SKY/WX    TMP DP  RH WIND       PRES   REMARKS
NORFOLK        PTSUNNY   75  57  53 SE8       29.87F
6HR MIN TEMP:  56; 6HR MAX TEMP:  75;

ALBION         CLOUDY    73  56  56 SE7       29.88F
BLAIR          MOSUNNY   80  60  51 NE8       29.85F
FREMONT        SUNNY     80  57  46 NE5       29.85F
TEKAMAH        SUNNY     80  57  45 NE7       29.85F
6HR MIN TEMP:  58; 6HR MAX TEMP:  81;

$$

NEZ050>053-065>068-078-088>093-261900-
SOUTHEAST NEBRASKA

CITY           SKY/WX    TMP DP  RH WIND       PRES   REMARKS
LINCOLN        SUNNY     82  63  52 E12       29.83S
6HR MIN TEMP:  59; 6HR MAX TEMP:  82;

OMAHA EPPLEY   MOSUNNY   82  57  42 E10       29.83F
6HR MIN TEMP:  60; 6HR MAX TEMP:  82;

FALLS CITY     MOSUNNY   79  68  69 SE13G21   29.82F
6HR MIN TEMP:  66; 6HR MAX TEMP:  79;

$$

NEZ044-045-051>053-067-261900-
OMAHA AREA

CITY           SKY/WX    TMP DP  RH WIND       PRES   REMARKS
OMAHA EPPLEY   MOSUNNY   82  57  42 E10       29.83F
6HR MIN TEMP:  60; 6HR MAX TEMP:  82;

BLAIR          MOSUNNY   80  60  51 NE8       29.85F
FREMONT        SUNNY     80  57  46 NE5       29.85F
$$




USA.gov is the U.S. government's official web portal to all federal, state and local government web resources and services.